Regional Weather Roundup
Issued by NWS Portland, ME

Home | Current Version | Previous Version | Text Only | Print | Product List | Glossary On
Versions: 1 2 3 4 5 6 7 8 9 10 11 12 13 14 15 16 17 18 19 20 21 22 23 24 25 26 27 28 29 30 31 32 33 34 35 36 37 38 39 40 41 42 43 44 45 46 47 48 49 50
000
ASUS41 KGYX 250110
RWRGYX
WEATHER ROUNDUP FOR MAINE AND NEW HAMPSHIRE
NATIONAL WEATHER SERVICE GRAY ME
900 PM EDT FRI APR 24 2015

MEZ002-005-006-010-012-015-018-020-021-024-026-027-029-250200-
MAINE

CITY           SKY/WX    TMP DP  RH WIND       PRES   REMARKS
PORTLAND       MOCLDY    40  24  53 NW12      29.74R
SANFORD        PTCLDY    37  19  48 NW14      29.76R
BAR HARBOR     MOCLDY    37  34  87 NW6       29.66S
WISCASSET      MOCLDY    37  24  59 VRB5      29.73R
ROCKLAND       MOCLDY    37  27  65 W8        29.69R
FRYEBURG       MOCLDY    36  22  56 W8G20     29.74R
LEWISTONAUBURN CLOUDY    37  21  52 NW13G23   29.72S
AUGUSTA        CLOUDY    35  22  58 NW9G18    29.71R
WATERVILLE     CLOUDY    36  21  55 W9        29.68S
BANGOR         CLOUDY    37  27  67 W8G18     29.67R
GREENVILLE       N/A     30  26  85 NW9G16    29.59S
MILLINOCKET    CLOUDY    36  30  79 W10G17    29.63R
HOULTON        LGT RAIN  35  32  88 W9        29.56R
PRESQUE ISLE   CLOUDY    34  28  80 W5        29.56R
FRENCHVILLE    LGT SNOW  32  30  92 N7        29.54R FOG
CARIBOU        LGT SNOW  33  32  96 W5        29.54R FOG
$$

NHZ002-005-008-009-011-012-014-250200-
NEW HAMPSHIRE

CITY           SKY/WX    TMP DP  RH WIND       PRES   REMARKS
PORTSMOUTH     PTCLDY    39  20  47 NW16G24   29.76R
ROCHESTER      FAIR      38  21  50 NW13G20   29.75R
NASHUA         CLOUDY    43  21  41 NW13G21   29.79R
MANCHESTER     CLOUDY    42  22  44 N16G26    29.78R
CONCORD        CLOUDY    39  20  46 NW14G22   29.79R
LACONIA        CLOUDY    37  19  48 W9G17     29.77F
PLYMOUTH       CLOUDY    37  27  67 NW6G17    29.79S
BERLIN         CLOUDY    32  22  66 MISG      29.74R
WHITEFIELD     CLOUDY    33  24  69 W8        29.77R
JAFFREY        CLOUDY    38  21  50 NW7       29.79R
KEENE          CLOUDY    39  21  48 NW8       29.81S
LEBANON        CLOUDY    38  21  50 NW9       29.81R
MT WASHINGTON  BLWGSNOW  10  10 100 NW47        N/A  VSB 0   WCI -16
$$

VTZ005-007-008-250200-
VERMONT

CITY           SKY/WX    TMP DP  RH WIND       PRES   REMARKS
ST JOHNSBURY     N/A     35  23  61 MISG      29.78R
MONTPELIER     CLOUDY    32  21  64 NW12G23   29.84R
BURLINGTON     CLOUDY    38  20  48 NW12      29.86R
$$

MAZ007-012-024-CTZ003-RIZ002-NYZ038-NYZ072-250200-
SOUTHERN NEW ENGLAND AND NY

CITY           SKY/WX    TMP DP  RH WIND       PRES   REMARKS
BOSTON         MOCLDY    44  20  38 NW16G25   29.79R
WORCESTER      CLOUDY    37  21  52 W12G23    29.79R
NANTUCKET      CLOUDY    46  27  47 NW13      29.76R
PROVIDENCE     MOCLDY    42  21  43 W15G22    29.81R
HARTFORD       MOCLDY    40  19  43 NW13      29.86R
ALBANY         CLOUDY    38  20  48 W15       29.92R
NEW YORK CITY  CLEAR     42  21  43 N22G32    29.92R
$$

ANZ081-ANZ082-ANZ150-NHZ014-MEZ023>029-250200-
COASTAL MARINE OBSERVATIONS

STATION/POSITION TIME  TEMP    WIND        PRES    WAVE
                       AIR SEA DIR/SP/G            HT/PER
                 (UTC) (F)     (DEG/KT/KT) (MB)    (FT/S)
$$

.............KEY..............
   WCI - WIND CHILL
   TC  - TEMPERATURE IN CELSIUS
   VSB - VISIBILITY IN MILES
   HX  - HEAT INDEX
   FAIR- INDICATES FEW OR NO CLOUDS BELOW 12,000 FT, WITH NO
         SIGNIFICANT WEATHER AND/OR OBSTRUCTIONS TO VISIBILITY.





USA.gov is the U.S. government's official web portal to all federal, state and local government web resources and services.